Flag for U.S.A. Weather past 2 weeks in Menominee, Michigan, U.S.A.

43 °F


Feels Like: 38 °F
Forecast: 44 / 57 °F
Wind: 8 mph from Northwest

Location: Menominee Weather Reporting Station

Current Time: Oct 7, 2015 at 7:38:59 AM

Latest Report: Oct 7, 2015 at 7:15 AM

Visibility: 10 mi

Pressure: 30.15 "Hg

Humidity: 81%

Dew point: 37 °F

Location of MenomineeLocation

Historic Weather in Menominee — Graph


Menominee temperature yesterday

Maximum temperature yesterday: 68 °F (at 2:55 PM)
Minimum temperature yesterday: 48 °F (at 6:15 AM)
Average temperature yesterday: 57 °F

Past Weeks' High & Low Weather Summary

High79 °F (Sep 28, 12:55 PM)94% (Sep 25, 6:15 AM)30.56 "Hg (Sep 25, 6:15 AM)
Low36 °F (Sep 30, 4:35 AM)41% (Sep 29, 5:35 PM)29.87 "Hg (Sep 28, 2:35 PM)
Average57 °F73%30.25 "Hg
* Reported Sep 22 6:15 AM — Oct 7 6:15 AM, Menominee, Weather by CustomWeather, © 2015

Note: Actual official high and low records may vary slightly from our data, if they occured in-between our weather recording intervals... More about our weather records


Menominee weather history for previous 24 hours

Time TempWeatherWind HumidityBarometerVisibility
6:15 AM
Wed, Oct 7
45 °FClear.8 mph81%30.13 "Hg10 mi
5:55 AM45 °FClear.8 mph81%30.13 "Hg10 mi
5:35 AM46 °FClear.7 mph76%30.11 "Hg10 mi
5:15 AM46 °FClear.6 mph76%30.11 "Hg10 mi
4:55 AM46 °FClear.6 mph76%30.10 "Hg10 mi
4:35 AM48 °FPassing clouds.7 mph76%30.10 "Hg10 mi
4:15 AM48 °FPassing clouds.8 mph82%30.09 "Hg10 mi
3:55 AM48 °FPassing clouds.8 mph82%30.09 "Hg10 mi
3:35 AM50 °FPassing clouds.8 mph76%30.09 "Hg10 mi
3:15 AM52 °FPassing clouds.5 mph72%30.08 "Hg10 mi
2:55 AM52 °FPassing clouds.6 mph77%30.08 "Hg10 mi
2:35 AM54 °FPassing clouds.7 mph67%30.08 "Hg10 mi
2:15 AM52 °FClear.8 mph77%30.07 "Hg10 mi
1:55 AM54 °FPassing clouds.9 mph72%30.07 "Hg10 mi
1:35 AM54 °FPassing clouds.9 mph77%30.06 "Hg10 mi
1:15 AM54 °FPassing clouds.9 mph77%30.06 "Hg10 mi
12:55 AM54 °FClear.5 mph77%30.06 "Hg10 mi
12:35 AM54 °FPassing clouds.3 mph77%30.05 "Hg10 mi
12:15 AM55 °FPassing clouds.5 mph72%30.05 "Hg10 mi
11:55 PM
Tue, Oct 6
55 °FPassing clouds.6 mph72%30.04 "Hg10 mi
11:35 PM55 °FClear.3 mph72%30.04 "Hg10 mi
10:55 PM55 °FClear.3 mph72%30.03 "Hg10 mi
10:35 PM55 °FClear.3 mph72%30.03 "Hg10 mi
10:15 PM55 °FClear.5 mph72%30.03 "Hg10 mi
9:55 PM55 °FClear.3 mph72%30.03 "Hg10 mi
9:35 PM57 °FClear.3 mph67%30.03 "Hg10 mi
9:15 PM57 °FClear.5 mph67%30.03 "Hg10 mi
8:55 PM57 °FClear.5 mph67%30.03 "Hg10 mi
8:35 PM59 °FClear.6 mph63%30.03 "Hg10 mi
8:15 PM59 °FClear.6 mph63%30.03 "Hg10 mi
7:55 PM59 °FClear.6 mph63%30.03 "Hg10 mi
7:35 PM61 °FClear.6 mph59%30.03 "Hg10 mi
7:15 PM61 °FClear.5 mph59%30.03 "Hg10 mi
6:55 PM61 °FClear.6 mph63%30.03 "Hg10 mi
6:35 PM63 °FClear.6 mph59%30.03 "Hg10 mi
6:15 PM63 °FSunny.6 mph59%30.03 "Hg10 mi
5:55 PM64 °FSunny.6 mph56%30.03 "Hg10 mi
5:15 PM66 °FPassing clouds.7 mph56%30.03 "Hg10 mi
4:15 PM64 °FSunny.3 mph60%30.04 "Hg10 mi
3:55 PM66 °FPassing clouds.7 mph60%30.04 "Hg10 mi
3:35 PM66 °FPassing clouds.8 mph60%30.04 "Hg10 mi
3:15 PM68 °FSunny.12 mph56%30.04 "Hg10 mi
2:55 PM68 °FSunny.9 mph53%30.05 "Hg10 mi
2:35 PM66 °FSunny.6 mph52%30.05 "Hg10 mi
2:15 PM66 °FSunny.5 mph52%30.06 "Hg10 mi
1:55 PM66 °FSunny.6 mph52%30.07 "Hg10 mi
1:35 PM66 °FScattered clouds.6 mph52%30.08 "Hg10 mi
1:15 PM64 °FOvercast.5 mph56%30.09 "Hg10 mi
12:55 PM64 °FOvercast.3 mph56%30.10 "Hg10 mi
12:35 PM63 °FOvercast.3 mph59%30.11 "Hg10 mi
12:15 PM63 °FPartly sunny.3 mph59%30.11 "Hg10 mi
11:55 AM63 °FPartly sunny.5 mph59%30.12 "Hg10 mi
11:35 AM61 °FMore clouds than sun.No wind63%30.12 "Hg10 mi
11:15 AM61 °FOvercast.5 mph63%30.13 "Hg10 mi
10:55 AM59 °FPartly sunny.8 mph68%30.14 "Hg10 mi
10:35 AM57 °FScattered clouds.5 mph72%30.13 "Hg10 mi
10:15 AM57 °FOvercast.3 mph67%30.12 "Hg10 mi
9:55 AM55 °FOvercast.6 mph77%30.14 "Hg10 mi
9:35 AM55 °FOvercast.5 mph77%30.13 "Hg10 mi
9:15 AM54 °FPartly sunny.3 mph77%30.13 "Hg10 mi
8:55 AM52 °FSunny.3 mph82%30.13 "Hg10 mi
8:35 AM52 °FSunny.3 mph82%30.14 "Hg10 mi
8:15 AM50 °FSunny.3 mph88%30.13 "Hg9 mi
7:55 AM48 °FSunny.3 mph87%30.13 "Hg8 mi
7:35 AM48 °FSunny.3 mph87%30.13 "Hg7 mi
7:15 AM48 °FSunny.5 mph87%30.13 "Hg6 mi
Weather by CustomWeather, © 2015

See weather overviewHow to use our weather pages